Weather History for KPUB - December, 1999

Change the Weather History Date:

Friday, December 31, 1999

  Actual Average Record
Temperature  
Mean Temperature 36 °F 30 °F  
Max Temperature 61 °F 46 °F 69 °F (1904)
Min Temperature 10 °F 14 °F -17 °F (2014)
Degree Days  
Heating Degree Days 30 35  
Month to date heating degree days 1083  
Since 1 July heating degree days 2363  
Cooling Degree Days 0 0  
Month to date cooling degree days 0  
Year to date cooling degree days 897  
Moisture  
Dew Point 10 °F    
Average Humidity 43    
Maximum Humidity 77    
Minimum Humidity 11    
Precipitation  
Precipitation 0.00 in 0.01 in 0.42 in (1924)
Month to date precipitation 0.38  
Year to date precipitation 12.57  
Snow  
Snow 0.00 in 0.20 in 4.20 in (1924)
Month to date snowfall 5.5  
Since 1 July snowfall 11.5  
Snow Depth -    
Sea Level Pressure  
Sea Level Pressure 29.97 in    
Wind  
Wind Speed 4 mph (NW)    
Max Wind Speed 10 mph    
Max Gust Speed -    
Visibility 10 miles    
Events      
T = Trace of Precipitation, MM = Missing Value Source: NWS Daily Summary

Daily Weather History Graph

Daily Weather History Graph

Search for Another Location

Airport or City:

Trip Planner

Search our weather history database for the weather conditions in past years. The results will help you decide how hot, cold, wet, or windy it might be!

Date:

Astronomy

Dec. 31, 1999 Rise Set
Actual Time 7:14 AM MST 4:47 PM MST
Civil Twilight 6:45 AM MST 5:16 PM MST
Nautical Twilight 6:12 AM MST 5:49 PM MST
Astronomical Twilight 5:39 AM MST 6:22 PM MST
Moon 1:38 AM MST (12/31) 1:11 PM MST (12/31)
Length of Visible Light 10h 31m
Length of Day
9h 32m
Waning Crescent, 29% of the Moon is Illuminated
Dec 31
Waning Crescent
Jan 6
New
Jan 14
First Quarter
Jan 20
Full
Jan 28
Last Quarter

Hourly Weather History & Observations

Time (MST) Temp. Windchill Dew Point Humidity Pressure Visibility Wind Dir Wind Speed Gust Speed Precip Events Conditions
12:54 AM 19.9 °F - 8.1 °F 60% 30.09 in 10.0 mi Calm Calm - N/A   Clear
1:54 AM 19.9 °F 12.1 °F 10.9 °F 68% 30.07 in 10.0 mi SW 5.8 mph - N/A   Clear
2:54 AM 17.1 °F 8.7 °F 9.0 °F 71% 30.06 in 10.0 mi WSW 5.8 mph - N/A   Clear
3:54 AM 12.9 °F 5.2 °F 5.0 °F 71% 30.06 in 10.0 mi West 4.6 mph - N/A   Clear
4:54 AM 12.9 °F 3.8 °F 6.1 °F 74% 30.08 in 10.0 mi West 5.8 mph - N/A   Clear
5:54 AM 12.9 °F 5.2 °F 5.0 °F 71% 30.09 in 10.0 mi WSW 4.6 mph - N/A   Clear
6:54 AM 10.9 °F - 5.0 °F 77% 30.14 in 10.0 mi Calm Calm - N/A   Clear
7:54 AM 18.0 °F 11.1 °F 10.9 °F 74% 30.10 in 10.0 mi NNW 4.6 mph - N/A   Clear
8:54 AM 28.9 °F - 14.0 °F 54% 30.07 in 10.0 mi Calm Calm - N/A   Clear
9:54 AM 35.1 °F 32.2 °F 16.0 °F 46% 30.05 in 10.0 mi Variable 3.5 mph - N/A   Clear
10:54 AM 44.1 °F 42.5 °F 16.0 °F 32% 30.00 in 10.0 mi Variable 3.5 mph - N/A   Clear
11:54 AM 50.0 °F - 15.8 °F 26% 29.92 in 10.0 mi East 4.6 mph - N/A   Clear
12:54 PM 55.0 °F - 14.0 °F 20% 29.89 in 10.0 mi SE 3.5 mph - N/A   Clear
1:54 PM 61.0 °F - 6.1 °F 11% 29.86 in 10.0 mi Variable 4.6 mph - N/A   Clear
2:54 PM 60.1 °F - 9.0 °F 13% 29.86 in 10.0 mi ESE 6.9 mph - N/A   Clear
3:54 PM 57.9 °F - 9.0 °F 14% 29.87 in 10.0 mi ENE 6.9 mph - N/A   Clear
4:54 PM 48.0 °F - 10.9 °F 22% 29.91 in 10.0 mi ENE 10.4 mph - N/A   Clear
5:54 PM 43.0 °F 38.8 °F 7.0 °F 23% 29.94 in 10.0 mi ENE 6.9 mph - N/A   Clear
6:54 PM 37.9 °F 32.1 °F 9.0 °F 30% 29.96 in 10.0 mi NNE 8.1 mph - N/A   Clear
7:54 PM 36.0 °F 29.0 °F 9.0 °F 33% 29.93 in 10.0 mi North 9.2 mph - N/A   Clear
8:54 PM 39.0 °F 34.0 °F 9.0 °F 29% 29.87 in 10.0 mi NNE 6.9 mph - N/A   Clear
9:54 PM 33.1 °F 27.7 °F 9.0 °F 37% 29.87 in 10.0 mi West 5.8 mph - N/A   Clear
10:54 PM 33.1 °F 28.7 °F 9.0 °F 37% 29.82 in 10.0 mi SW 4.6 mph - N/A   Clear
11:54 PM 32.0 °F 27.5 °F 12.0 °F 44% 29.78 in 10.0 mi WSW 4.6 mph - N/A   Clear